Retour au catalogue

STARLINK-5287

ActifCommunicationsVLEO
NORAD 55293·PAYLOAD·🇺🇸 United States

Lancé Jan 19, 2023 depuis Vandenberg Space Force Base

Loading…

Prochains Passages (prochaines 24 heures)

TLE

FraisSource: CelesTrak SupGP

Époque: Sep 15, 2026, 01:31 UTC

1 55293C 23010AA  26258.06368056 -.00011048  00000+0 -92562-3 0  2587
2 55293  70.0000 266.9596 0003260 270.2193 172.3470 14.98347692    19

Suivez STARLINK-5287 en temps réel avec AllMySat

Download on the App Store